Current weather by "City, St" or "zip code"  
 

Current Conditions: PRESCOTT

Clear


57.9 F

Last Updated on May 25 2024, 11:53 PM MST
Humidity: 36%
Wind Speed: 5.8 mph
Barometer 30.03 in
Dewpoint: 30.9 F
Visibility: 10.00 mi
Precip: --
Heat Index: NA
Wind Chill: NA
Current conditions at:

PRESCOTT (KPRC)

Lat: 34.65 Lon: 112.42

active severe weather and emergency alerts image image weather storm and storm spotter reports image weather observation monitoring service image
Active
Alerts
Storm Reports Obs
Monitoring

Sign-up For Email & Text Message Weather Alert Notification Services



Advertise Here

Observation History for PRESCOTT


Time Wind
(mph)
Vis
(mi)
Weather Precip (in) Temperature (F) Relative
Humidity
Wind
Chill
(F)
Heat
Index
(F)
Pressure
Air Dwpt altimeter
(in)
sea level
(mb)
Rmks
11:53 PM MST 5.8 10.00 Clear -- 57.9 30.9 36% NA NA 30.03 1016.9
10:53 PM MST 4.7 10.00 Clear -- 59.0 30.0 33% NA NA 30.03 1016.9
09:53 PM MST S 4.7 10.00 Clear -- 61.0 30.9 32% NA NA 30.03 1016.9
08:53 PM MST 5.8 10.00 Clear -- 62.1 30.0 30% NA NA 30.01 1016.3
07:53 PM MST 9.2 10.00 Clear -- 66.0 28.0 24% NA NA 29.98 1015.2
06:53 PM MST 13.9 10.00 Clear -- 70.0 27.0 20% NA NA 29.97 1014.9
05:53 PM MST 13.9 10.00 Clear -- 71.1 30.0 22% NA 68.9 29.95 1014.2
03:53 PM MST 15.0 10.00 Clear -- 73.9 26.1 17% NA 71.8 29.95 1014.2
02:53 PM MST 15.0 10.00 Clear -- 73.0 28.9 19% NA 70.9 29.95 1014.2
01:53 PM MST SW 21.9 10.00 Clear and Windy -- 73.0 28.0 19% NA 70.9 29.95 1014.2
12:53 PM MST 12.8 10.00 Clear -- 72.0 27.0 19% NA 69.8 29.95 1014.2
11:53 AM MST 17.2 10.00 Clear -- 70.0 28.0 21% NA NA 29.96 1014.6
10:53 AM MST 10.00 Clear -- 69.1 28.9 22% NA NA 29.94 1013.9
08:53 AM MST 13.9 10.00 Clear -- 66.0 28.0 24% NA NA 29.94 1013.9
07:53 AM MST 10.00 Clear -- 63.0 28.0 27% NA NA 29.94 1013.6
06:53 AM MST 9.2 10.00 Clear -- 60.1 28.0 29% NA NA 29.90 1012.5
05:53 AM MST S 6.9 10.00 Clear -- 55.9 30.0 37% NA NA 29.89 1012.2
04:53 AM MST S 12.8 10.00 Clear -- 57.9 28.9 33% NA NA 29.87 1011.5
03:53 AM MST 11.4 10.00 Clear -- 59.0 28.9 32% NA NA 29.88 1011.9
02:53 AM MST S 8.1 10.00 Clear -- 61.0 28.9 30% NA NA 29.88 1011.9
01:53 AM MST S 8.1 10.00 Clear -- 63.0 28.9 28% NA NA 29.88 1011.9
12:53 AM MST S 3.4 10.00 Clear -- 62.1 28.0 27% NA NA 29.90 1012.5
11:53 PM MST S 4.7 10.00 NULL -- 63.0 28.0 27% NA NA 29.90 1012.5
10:53 PM MST 6.9 10.00 Clear -- 64.0 27.0 24% NA NA 29.91 1012.9

Regional Weather Observation


WILLIAMS CLARK (KCMR)

Clear
44.6 F

SEDONA (KSEZ)

Clear
60.8 F

FLAGSTAFF (KFLG)

Clear
41.0 F

GRAND CANYON (KGCN)

Clear
NULL F

KINGMAN (KIGM)

Clear
62.1 F

PAYSON (KPAN)

Clear
51.8 F

Advertise Here


Advertise Here